sat.trackr.live / text

‹ back to catalog

STARLINK-2557

NORAD 48299 · 2021-036Z

PAYLOAD ACTIVE UNKNOWN

§ Identity

Operator
Country
US
Launch date
2021-04-29
Launch site
AFETR
Launch vehicle
Mass (kg)
RCS (m²)

Purposes: comms

External: N2YO · Heavens-Above · Gunter

§ Orbital elements

Epoch: 2026-05-25T04:54:10.345824Z

Period
94.01 min
Inclination
53.1600°
Eccentricity
0.0001509
Mean motion
15.31695324 rev/d
Perigee alt
469.7 km
Apogee alt
471.8 km
Semi-major
6,848.9 km
B*
1.4236e-5
RAAN
79.4704°
Arg perigee
97.8112°
Mean anomaly
262.3061°
Rev number
28,013

§ Raw data

STARLINK-25571 48299U 21036Z   26145.20428641  .00000076  00000+0  14236-4 0  99912 48299  53.1600  79.4704 0001509  97.8112 262.3061 15.31695324280136

JSON: /api/v1/satellites/48299 · /tle

For live sub-satellite position, see the globe view (requires WebGL).

§ Visibility from observer

Set your observer location to see the next 7 days of passes ≥ 10°. The values pass through the URL so the page stays shareable.

No JS? Fill the form by hand. The geolocation button needs JavaScript.